www.pogodaiklimat.ru

Погода и климат >> Архив погоды >> Багамские Острова >> Большая Багама


ПОГОДА в Большой Багаме

  • Прогноз погоды в Большой Багаме
  • Монитор погоды в Большой Багаме

АРХИВ ПОГОДЫ в Большой Багаме

Время (UTC), дата Ветер
(напр.,м/с)
 
Видим.   Явления Облачность Т
(С)
Тd
(С)
f
(%)
Тe
(С)
Тes
(С)
Комфортность P
(гПа)
Po
(гПа)
Тmin
(С)
Tmax
(С)
R
(мм)
R24
(мм)
S
(см)
21 19.03 СВ 7 7000 м 10/3 360 м
[Cu Sc As op]
+18.5 +17.3 93 +19 +19 1014.8 1013.5
00 20.03 СВ 4 13 км {дождь} 10/6 540 м
[Cu Sc Ac As]
+19.0 +16.3 84 +20 +20 1016.1 1014.8 +17.5 +20.1 3
12 20.03 СВ 2 19 км осадки на расстоянии 9/4 450 м
[Cu Sc Ac trans Ci sp]
+18.8 +17.9 95 +21 +21 комфорт 1014.2 1012.9 +17.8 +20.1 4
15 20.03 С 5 19 км 9/4 360 м
[Cu Sc Ac trans]
+22.8 +19.0 79 +29 +31 очень
душно
1015.2 1013.9
18 20.03 СВ 8 19 км 9/9 900 м
[Cu Sc]
+22.9 +18.9 78 +29 +29 очень
душно
1014.7 1013.4
21 20.03 СВ 8 28 км 9/9 660 м
[Cu Sc]
+24.2 +18.9 72 +29 +29 душно 1013.5 1012.2
00 21.03 В 4 17 км в посл. час ливневой дождь 9/9 450 м
[Cu Sc]
+20.3 +18.0 87 +24 +24 комфорт 1014.6 1013.3 +17.8 +25.4 0.2
12 21.03 СВ 2 17 км 6/0
[Ac trans]
+17.5 +16.7 95 +18 +19 1014.7 1013.4 +16.6 +25.4
15 21.03 С 3 19 км 9/8 1200 м
[Cu Sc Ac As]
+24.0 +17.6 67 +28 +29 душно 1015.6 1014.3
18 21.03 С 1 19 км осадки на расстоянии {ливн. осадки} 10/3 900 м
[Cu Sc As op]
+22.3 +17.3 73 +27 +30 душно 1014.3 1013.0 0.5
21 21.03 СЗ 3 15 км осадки на расстоянии 9/5 540 м
[Cu Sc As op]
+22.6 +17.1 71 +27 +28 душно 1013.3 1012.0
00 22.03 С 2 15 км 1/1 600 м
[Cu Sc]
+19.0 +17.3 90 +21 +21 комфорт 1013.6 1012.3 +16.8 +24.2
12 22.03 СЗ 5 19 км 3/3 1050 м
[Cu hum]
+19.3 +12.1 63 +20 +21 1016.6 1015.3 +13.5 +24.2
15 22.03 СЗ 6 17 км мгла 1/1 1200 м
[Cu hum]
+22.0 +12.0 53 +24 +29 комфорт 1018.3 1017.0
18 22.03 СЗ 4 17 км мгла 1/1 1200 м
[Cu hum]
+22.9 +11.6 49 +25 +36 комфорт 1018.0 1016.7
21 22.03 СЗ 5 19 км мгла ясно +22.1 +12.0 53 +24 +28 комфорт 1017.1 1015.8
12 23.03 ЮВ 2 22 км ясно +10.9 +9.4 90 +9 +10 1020.3 1019.0 +8.9 +23.2
18 23.03 С 4 15 км мгла 1/1 900 м
[Cu hum]
+25.1 +14.2 51 +28 +38 жарко 1022.3 1021.0
21 23.03 С 4 15 км мгла 1/1 900 м
[Cu hum]
+25.1 +15.5 55 +28 +32 жарко 1021.2 1019.9
00 24.03 СВ 1 15 км мгла 1/1 1200 м
[St]
+20.5 +15.8 74 +25 +25 комфорт 1022.3 1021.0 +10.5 +25.9
12 24.03 СВ 4 13 км 4/1 750 м
[Cu Sc Ac lent Ci sp]
+17.1 +13.6 80 +17 +17 1023.1 1021.8 +14.9 +25.9
15 24.03 В 6 19 км 8/5 900 м
[Sc diur, vesp Ci fib]
+25.1 +16.0 57 +28 +31 жарко 1024.6 1023.3
18 24.03 В 7 13 км мгла 8/5 1050 м
[Cu hum Ci]
+26.3 +16.4 54 +30 +32 душно 1023.2 1021.9
21 24.03 ЮВ 6 19 км 9/5 750 м
[Cu hum Ci sp]
+25.5 +17.7 62 +30 +31 душно 1022.0 1020.7
00 25.03 В 3 19 км 6/3 600 м
[Cu Sc Ac trans Ci sp]
+21.2 +16.2 73 +25 +25 комфорт 1022.0 1020.7 +16.7 +27.2
12 25.03 СВ 3 13 км 5/1 900 м
[Cu Sc Ac trans]
+17.9 +16.3 90 +18 +19 1019.9 1018.6 +15.7 +27.2
15 25.03 В 4 19 км осадки на расстоянии 8/3 1050 м
[Cu Sc Ac trans Ci fib]
+25.0 +19.1 70 +30 +34 душно 1020.7 1019.4
18 25.03 ЮВ 4 13 км 6/3 1050 м
[Cu Sc Ac lent]
+28.9 +20.5 61 +36 +41 очень
душно
1019.3 1018.0
21 25.03 ЮВ 4 19 км 5/4 900 м
[Cu Sc Ac trans Ci sp]
+27.4 +20.7 67 +34 +37 очень
душно
1017.2 1015.9
00 26.03 ЮВ 3 19 км 3/3 1000 м
[Cu Sc Ci sp]
+23.0 +20.1 84 +30 +30 очень
душно
1016.9 1015.6 +17.2 +29.0
12 26.03 Ю 1 11 км 3/3 600 м
[Cu Sc]
+17.8 +16.7 93 +19 +20 1016.1 1014.8 +15.8 +29.0
15 26.03 СЗ 6 19 км 5/5 480 м
[Cu med, cong]
+26.3 +21.7 76 +34 +37 очень
душно
1016.8 1015.5
18 26.03 С 7 15 км 1/1 750 м
[Cu med, cong]
+27.0 +19.9 65 +33 +38 очень
душно
1016.0 1014.7

 

Местоположение метеостанции Большая Багама (Багамские Острова): широта 26.55 долгота -78.70 высота над уровнем моря 11 м.

В архиве по умолчанию представлена погода в Большой Багаме за последнюю неделю. Архивные данные за месяц целиком и за предыдущие месяцы, начиная с января 2011 года, Вы можете получить, выбрав интересующий диапазон дат из раскрывающегося списка и нажав кнопку "Ввод!".


*Определитесь, кто Вы:
робот инопланетянин человек

Внимание! Время в таблицах - всемирное. Для получения местного времени необходимо прибавить поправку, которая равна -4 ч.

Смотрите также архив погоды в соседних городах и на ближайших метеорологических станциях:

Погода в Нассау (Багамские Острова) (208 км)
Погода в Кайо-Коко (Куба) (448 км)
Погода в Кайбарьене (Куба) (455 км)
Погода в Ябу (Куба) (472 км)
Погода в Варадеро (Куба) (480 км)
Погода в Санкти-Спиритусе (Куба) (519 км)
Погода в Каса Бланка (Куба) (526 км)
Погода в Сьенфуэгосе (Куба) (536 км)
Погода в Гавана аэропорту (Куба) (545 км)
Погода в Хукаро (Куба) (549 км)

Пояснения к столбцам:

Ветер - указаны скорость ветра в м/с - средняя за 10 мин, порывы в срок и между сроками (в фигурных скобках) и направление, откуда дует ветер: С - северный, СВ - северо-восточный, В - восточный, ЮВ - юго-восточный, Ю - южный, ЮЗ - юго-западный, З - западный, СЗ - северо-западный.
Видимость - горизонтальная дальность видимости в метрах или километрах. При видимости от 1 до 10 км при отсутствии осадков обычно наблюдается дымка, при ухудшении видимости до 1 км и менее - туман. В сухую погоду видимость может ухудшаться дымом, пылью или мглою.
Явления - указаны атмосферные явления, наблюдавшиеся в срок или в последний час перед сроком; фигурными скобками обозначены явления, наблюдавшиеся между сроками (за 1-3 часа до срока); квадратными скобками обозначены град или гололедные отложения с указанием их диаметра в мм.
Облачность - указаны через наклонную черту общая и нижняя облачность в баллах и высота нижней границы облаков в метрах; квадратными скобками обозначены формы облаков: Ci - перистые, Cs - перисто-слоистые, Cc - перисто-кучевые, Ac - высококучевые, As - высокослоистые, Sc - слоисто-кучевые, Ns - слоисто-дождевые, Cu - кучевые, Cb - кучево-дождевые. Подробнее классификацию облаков см. в Атласе облаков (PDF).
T - Температура воздуха - температура, измеренная на высоте 2 м над землей.
Td - Температура точки росы - температура, при понижении до которой содержащийся в воздухе водяной пар достигнет насыщения.
f - Относительная влажность воздуха - влажноcть воздуха, измеренная на высоте 2 м над землей.
Te - Эффективная температура - температура, которую ощущает одетый по сезону человек в тени. Характеристика душности погоды. При расчете учитывается влияние влажности воздуха и скорости ветра на теплоощущения человека.
Tes - Эффективная температура на солнце - температура, которую ощущает человек, с поправкой на солнечный нагрев. Характеристика знойности погоды. Зависит от высоты солнца над горизонтом, облачности и скорости ветра. Ночью, в пасмурную погоду, а также при ветре 12 м/с и более поправка равна нулю.
P - Атмосферное давление - приведенное к уровню моря атмосферное давление.
Po - Атмосферное давление - измеренное на уровне метеостанции атмосферное давление.
Tmin - Минимальная температура - минимум температуры воздуха на высоте 2 м над землей.
Tmax - Максимальная температура - максимум температуры воздуха на высоте 2 м над землей.
R - Количество осадков - Количество выпавших осадков за период времени, мм. При наведении курсора мыши на число - период времени, за который выпало указанное количество осадков.
R24 - Количество осадков - Количество выпавших осадков за 24 часа, мм.
S - Снежный покров - Высота снежного покрова, см. При наведении курсора мыши на число - состояние снежного покрова и степень покрытия местности в баллах.